THOR ABLESTAR DEB, 3748

Orbit data source: Space-Track

THOR ABLESTAR DEB, 3748 is space debris in LEO originally from a launch on Thu, 29 Jun 1961 UTC launched from the Air Force Eastern Test Range (AFETR). Debris objects in space refer to the collection of defunct objects orbiting the Earth. Examples of debris include non-operational satellites, rocket bodies, and fragments generated from explosions, collisions, or faulty payload assembly.

Loading next visibility...
Identifier
3748, 1961-015JD
Orbit
LEO
Country
Flag of USUS
Related business
Manufacturer
Unknown
Mission
Spacecraft
Bus & Motor
Unknown
Mass
Unknown
Launch date (UTC)
1961-06-29 (64 years ago)
Launch vehicle
Unknown
Launch site
Air Force Eastern Test Range (AFETR)
Object type
Payload
Rocket body
Debris
Shape & HBR
Unknown shape, 0.1 m
Radar Cross Section
Small (<0.1 m²)

Expand to show TLE details & history
Last TLE update: 12 hours ago

TLE from 12 hours ago
0 THOR ABLESTAR DEB
1 03748U 61015JD  25341.29884103  .00000333  00000-0  93995-3 0  9992
2 03748  67.7412 161.9493 0525562  64.4672 348.9979 12.80011255669261
Epoch: 2025-12-07T07:10Z
TLE epoch observation values (Epoch: 2025-12-07T07:10:19.864Z)
Latitude
47.13608°
Longitude
4.07198°
Altitude
950.446 km
Speed
7.569 km/s
True Right ascension
12h 31m 52s
True Declination
46° 58' 09"
Sunlit
Object was in daylight at epoch
Visualization orbit readout
Latitude
Unknown
Longitude
Unknown
Altitude
Unknown
Speed
Unknown
Apparent Right ascension
Unknown
Apparent Declination
Unknown
Sunlit
N/A
Visualization observer readout
Local Sidereal Time
17:42:48
Azimuth
Unknown
Elevation
Unknown
Doppler factor
Unknown
Orbital elements
Apogee altitude
1,745.424 km
Perigee altitude
934.173 km
Semi-major axis
7,717.935 km
Eccentricity
0.05256
Inclination
67.7412°
RAAN
161.9493°
Arg. of periapsis
64.4672°
True anomaly
347.76964°
Mean anomaly
348.9979°
Eccentric anomaly
348.39199°
Mean motion
3.20104 °/min
Orbital period
112.46 mins
BSTAR
0.00093995

Documentation

Showing up to 5 results
|